Regional Weather Roundup
Issued by NWS

Home | Current Version | Previous Version | Text Only | Print | Product List | Glossary On
Versions: 1 2 3 4 5 6 7 8 9 10 11 12 13 14 15 16 17 18 19 20 21 22 23 24 25 26 27 28 29 30 31 32 33 34 35 36 37 38 39 40 41 42 43 44 45 46 47 48 49 50
000
ASUS43 KLSX 300757
RWRMO

WEATHER SUMMARY FOR MISSOURI
NATIONAL WEATHER SERVICE SPRINGFIELD MO
300 AM CDT SAT APR 30 2016

NOTE: "FAIR" INDICATES FEW OR NO CLOUDS BELOW 12,000 FEET WITH NO
       SIGNIFICANT WEATHER AND/OR OBSTRUCTIONS TO VISIBILITY.
       CURRENT SKY AND/OR WEATHER CONDITIONS ARE NOT AVAILABLE FOR
       CHILLICOTHE AND FARMINGTON.

MOZ001>031-035>038-043-044-053-054-300900-
...NORTHERN AND WESTERN MISSOURI...

CITY           SKY/WX    TMP DP  RH WIND       PRES   REMARKS
KANSAS CTY INT FOG       53  51  93 E14       29.70F VSB 1/2
LEE`S SUMMIT   CLOUDY    57  56  96 E7        29.70F
ST JOSEPH      LGT RAIN  51  49  92 E12G23    29.72F FOG
CHILLICOTHE      N/A     53  50  89 VRB5G20   29.80R

$$
MOZ066>068-077>081-088>096-101>105-300900-
...SOUTHWEST MISSOURI...

CITY           SKY/WX    TMP DP  RH WIND       PRES   REMARKS
SPRINGFIELD    CLOUDY    62  59  90 E13       29.68F
JOPLIN         CLOUDY    61  60  97 E9        29.61F

$$
MOZ032>034-039>042-045>050-055>058-069>072-300900-
...CENTRAL MISSOURI...

CITY           SKY/WX    TMP DP  RH WIND       PRES   REMARKS
COLUMBIA       NOT AVBL
JEFFERSON CITY RAIN      58  56  93 SE14G23   29.80F FOG
ROLLA          LGT RAIN  57  55  93 E14       29.81F
SEDALIA        LGT RAIN  59  57  93 SE18      29.72F
WARRENSBURG    CLOUDY    59  55  88 S3        29.70R

$$
MOZ051-052-059>065-300900-
...EAST CENTRAL MISSOURI...

CITY           SKY/WX    TMP DP  RH WIND       PRES   REMARKS
ST LOUIS INTL  LGT RAIN  59  56  89 E10       29.88F FOG

$$
MOZ072>076-082>087-097>100-106>115-300900-
...SOUTH CENTRAL AND SOUTHEAST MISSOURI...

CITY           SKY/WX    TMP DP  RH WIND       PRES   REMARKS
CAPE GIRARDEAU RAIN      60  58  92 E6        29.89R FOG
POPLAR BLUFF   HVY RAIN  60  59  96 NE8       29.84F FOG
WEST PLAINS    RAIN      60  57  89 E8        29.80F FOG

$$


USA.gov is the U.S. government's official web portal to all federal, state and local government web resources and services.